| time (UTC) | temp C | wind direction | speed KPH | gust KPH | rain 1hr cm | rain 24hr cm | rain mn cm | humidity % | barometer mb |
| 20260904171516 | 37 | 255 | 1.6 | 4.8 | 0.00 | 0.00 | 0.00 | 14 | 1020.6 |
| 20260904170515 | 37 | 270 | 1.6 | 6.4 | 0.00 | 0.00 | 0.00 | 14 | 1020.4 |
| 20260904165516 | 36 | 271 | 1.6 | 4.8 | 0.00 | 0.00 | 0.00 | 16 | 1020.4 |
| 20260904164515 | 36 | 247 | 1.6 | 6.4 | 0.00 | 0.00 | 0.00 | 15 | 1020.3 |
| 20260904163515 | 36 | 250 | 3.2 | 8.0 | 0.00 | 0.00 | 0.00 | 15 | 1020.5 |
| 20260904162516 | 37 | 241 | 3.2 | 8.0 | 0.00 | 0.00 | 0.00 | 15 | 1020.6 |
| 20260904161516 | 37 | 239 | 4.8 | 8.0 | 0.00 | 0.00 | 0.00 | 14 | 1020.7 |
| 20260904160515 | 37 | 269 | 3.2 | 8.0 | 0.00 | 0.00 | 0.00 | 14 | 1020.7 |
| 20260904155515 | 37 | 269 | 4.8 | 9.7 | 0.00 | 0.00 | 0.00 | 14 | 1020.7 |
| 20260904154516 | 37 | 259 | 3.2 | 8.0 | 0.00 | 0.00 | 0.00 | 14 | 1020.8 |
| 20260904153556 | 37 | 278 | 3.2 | 6.4 | 0.00 | 0.00 | 0.00 | 14 | 1020.9 |
| 20260904152516 | 37 | 291 | 3.2 | 8.0 | 0.00 | 0.00 | 0.00 | 13 | 1020.9 |
| 20260904151516 | 37 | 251 | 3.2 | 9.7 | 0.00 | 0.00 | 0.00 | 13 | 1021.2 |
| 20260904150516 | 37 | 281 | 3.2 | 6.4 | 0.00 | 0.00 | 0.00 | 14 | 1021.3 |
| 20260904145516 | 37 | 289 | 3.2 | 6.4 | 0.00 | 0.00 | 0.00 | 13 | 1021.3 |
| 20260904144516 | 37 | 283 | 3.2 | 8.0 | 0.00 | 0.00 | 0.00 | 13 | 1021.6 |
| 20260904143516 | 37 | 282 | 3.2 | 6.4 | 0.00 | 0.00 | 0.00 | 13 | 1021.6 |
| 20260904142516 | 37 | 275 | 3.2 | 8.0 | 0.00 | 0.00 | 0.00 | 14 | 1021.7 |
| 20260904141616 | 37 | 278 | 3.2 | 6.4 | 0.00 | 0.00 | 0.00 | 13 | 1021.9 |
| 20260904140515 | 37 | 294 | 1.6 | 9.7 | 0.00 | 0.00 | 0.00 | 13 | 1022.0 |
| 20260904135515 | 37 | 296 | 4.8 | 9.7 | 0.00 | 0.00 | 0.00 | 13 | 1022.2 |
| 20260904134516 | 37 | 283 | 4.8 | 11.3 | 0.00 | 0.00 | 0.00 | 13 | 1022.4 |
| 20260904133515 | 37 | 277 | 4.8 | 12.9 | 0.00 | 0.00 | 0.00 | 14 | 1022.5 |
| 20260904132516 | 36 | 276 | 4.8 | 9.7 | 0.00 | 0.00 | 0.00 | 14 | 1022.4 |
| 20260904131516 | 36 | 289 | 3.2 | 8.0 | 0.00 | 0.00 | 0.00 | 14 | 1022.7 |
| 20260904130516 | 36 | 22 | 4.8 | 9.7 | 0.00 | 0.00 | 0.00 | 15 | 1022.9 |
| 20260904125516 | 37 | 42 | 1.6 | 9.7 | 0.00 | 0.00 | 0.00 | 15 | 1023.0 |
| 20260904124516 | 36 | 227 | 3.2 | 6.4 | 0.00 | 0.00 | 0.00 | 15 | 1023.1 |
| 20260904123516 | 36 | 182 | 1.6 | 4.8 | 0.00 | 0.00 | 0.00 | 14 | 1023.2 |
| 20260904122516 | 36 | 254 | 3.2 | 8.0 | 0.00 | 0.00 | 0.00 | 15 | 1023.3 |
| 20260904121516 | 35 | 276 | 1.6 | 4.8 | 0.00 | 0.00 | 0.00 | 16 | 1023.3 |
| 20260904120516 | 35 | 281 | 3.2 | 6.4 | 0.00 | 0.00 | 0.00 | 17 | 1023.4 |
| 20260904115556 | 35 | 316 | 3.2 | 4.8 | 0.00 | 0.00 | 0.00 | 16 | 1023.6 |
| 20260904114516 | 35 | 292 | 1.6 | 4.8 | 0.00 | 0.00 | 0.00 | 17 | 1023.8 |
| 20260904113516 | 34 | 249 | 1.6 | 3.2 | 0.00 | 0.00 | 0.00 | 19 | 1023.8 |
| 20260904112516 | 33 | 249 | 1.6 | 4.8 | 0.00 | 0.00 | 0.00 | 19 | 1023.8 |
| 20260904111556 | 33 | 267 | 1.6 | 4.8 | 0.00 | 0.00 | 0.00 | 19 | 1024.1 |
| 20260904110516 | 33 | 260 | 1.6 | 4.8 | 0.00 | 0.00 | 0.00 | 20 | 1024.3 |
| 20260904105556 | 32 | 179 | 1.6 | 3.2 | 0.00 | 0.00 | 0.00 | 20 | 1024.2 |
| 20260904104516 | 32 | 189 | 3.2 | 4.8 | 0.00 | 0.00 | 0.00 | 21 | 1024.4 |
| 20260904103516 | 31 | 261 | 1.6 | 4.8 | 0.00 | 0.00 | 0.00 | 22 | 1024.5 |
| 20260904102516 | 30 | 274 | 3.2 | 6.4 | 0.00 | 0.00 | 0.00 | 22 | 1024.5 |
| 20260904101516 | 30 | 269 | 1.6 | 6.4 | 0.00 | 0.00 | 0.00 | 23 | 1024.6 |
| 20260904100516 | 29 | 274 | 4.8 | 6.4 | 0.00 | 0.00 | 0.00 | 24 | 1024.7 |
| 20260904095516 | 29 | 269 | 1.6 | 6.4 | 0.00 | 0.00 | 0.00 | 24 | 1024.8 |
| 20260904094516 | 28 | 274 | 1.6 | 4.8 | 0.00 | 0.00 | 0.00 | 25 | 1024.7 |
| 20260904093516 | 28 | 266 | 1.6 | 3.2 | 0.00 | 0.00 | 0.00 | 25 | 1024.6 |
| 20260904092517 | 28 | 258 | 1.6 | 4.8 | 0.00 | 0.00 | 0.00 | 25 | 1024.5 |
| 20260904091516 | 27 | 63 | 1.6 | 4.8 | 0.00 | 0.00 | 0.00 | 25 | 1024.5 |
| 20260904090516 | 26 | 72 | 3.2 | 6.4 | 0.00 | 0.00 | 0.00 | 26 | 1024.3 |
| 20260904085516 | 26 | 72 | 4.8 | 6.4 | 0.00 | 0.00 | 0.00 | 27 | 1024.2 |
| 20260904084516 | 25 | 36 | 4.8 | 9.7 | 0.00 | 0.00 | 0.00 | 28 | 1023.9 |
| 20260904083556 | 24 | 50 | 4.8 | 12.9 | 0.00 | 0.00 | 0.00 | 28 | 1023.9 |
| 20260904082516 | 23 | 44 | 6.4 | 12.9 | 0.00 | 0.00 | 0.00 | 29 | 1023.8 |
| 20260904081616 | 23 | 45 | 4.8 | 12.9 | 0.00 | 0.00 | 0.00 | 29 | 1023.9 |
| 20260904080516 | 23 | 60 | 4.8 | 12.9 | 0.00 | 0.00 | 0.00 | 29 | 1023.8 |
| 20260904075516 | 22 | 68 | 4.8 | 12.9 | 0.00 | 0.00 | 0.00 | 29 | 1023.7 |
| 20260904074516 | 22 | 63 | 6.4 | 12.9 | 0.00 | 0.00 | 0.00 | 30 | 1023.7 |
| 20260904073516 | 22 | 66 | 4.8 | 11.3 | 0.00 | 0.00 | 0.00 | 31 | 1023.9 |
| 20260904072556 | 21 | 44 | 6.4 | 14.5 | 0.00 | 0.00 | 0.00 | 31 | 1023.7 |
| 20260904071516 | 21 | 53 | 4.8 | 9.7 | 0.00 | 0.00 | 0.00 | 33 | 1024.0 |
| 20260904070517 | 21 | 42 | 3.2 | 9.7 | 0.00 | 0.00 | 0.00 | 33 | 1024.0 |
| 20260904065516 | 21 | 49 | 6.4 | 9.7 | 0.00 | 0.00 | 0.00 | 33 | 1023.8 |
| 20260904064516 | 20 | 53 | 3.2 | 8.0 | 0.00 | 0.00 | 0.00 | 33 | 1023.8 |
| 20260904063556 | 20 | 40 | 4.8 | 11.3 | 0.00 | 0.00 | 0.00 | 33 | 1023.7 |
| 20260904062556 | 20 | 48 | 4.8 | 8.0 | 0.00 | 0.00 | 0.00 | 34 | 1023.6 |
| 20260904061516 | 20 | 47 | 4.8 | 9.7 | 0.00 | 0.00 | 0.00 | 33 | 1023.6 |
| 20260904060516 | 20 | 58 | 3.2 | 8.0 | 0.00 | 0.00 | 0.00 | 33 | 1023.7 |
| 20260904055516 | 20 | 73 | 3.2 | 6.4 | 0.00 | 0.00 | 0.00 | 33 | 1023.6 |
| 20260904054516 | 20 | 46 | 1.6 | 3.2 | 0.00 | 0.00 | 0.00 | 33 | 1023.5 |
| 20260904053516 | 20 | 50 | 3.2 | 6.4 | 0.00 | 0.00 | 0.00 | 34 | 1023.3 |
| 20260904052516 | 20 | 55 | 4.8 | 8.0 | 0.00 | 0.00 | 0.00 | 34 | 1023.2 |
| 20260904051516 | 20 | 78 | 3.2 | 4.8 | 0.00 | 0.00 | 0.00 | 34 | 1023.3 |
| 20260904050516 | 20 | 79 | 3.2 | 4.8 | 0.00 | 0.00 | 0.00 | 33 | 1023.3 |
| 20260904045516 | 20 | 78 | 1.6 | 8.0 | 0.00 | 0.00 | 0.00 | 32 | 1023.1 |
| 20260904044516 | 21 | 48 | 6.4 | 11.3 | 0.00 | 0.00 | 0.00 | 32 | 1023.1 |
| 20260904043516 | 21 | 53 | 6.4 | 11.3 | 0.00 | 0.00 | 0.00 | 31 | 1023.2 |
| 20260904042516 | 21 | 49 | 4.8 | 11.3 | 0.00 | 0.00 | 0.00 | 30 | 1023.2 |
| 20260904041516 | 21 | 54 | 6.4 | 16.1 | 0.00 | 0.00 | 0.00 | 30 | 1023.2 |
| 20260904040516 | 22 | 57 | 6.4 | 11.3 | 0.00 | 0.00 | 0.00 | 29 | 1023.2 |
| 20260904035516 | 22 | 63 | 8.0 | 17.7 | 0.00 | 0.00 | 0.00 | 28 | 1023.3 |
| 20260904034516 | 22 | 55 | 8.0 | 17.7 | 0.00 | 0.00 | 0.00 | 28 | 1023.3 |
| 20260904033556 | 22 | 45 | 11.3 | 16.1 | 0.00 | 0.00 | 0.00 | 29 | 1023.5 |
| 20260904032516 | 22 | 48 | 8.0 | 14.5 | 0.00 | 0.00 | 0.00 | 30 | 1023.5 |
| 20260904031556 | 22 | 43 | 6.4 | 9.7 | 0.00 | 0.00 | 0.00 | 30 | 1023.4 |
| 20260904030516 | 22 | 43 | 6.4 | 11.3 | 0.00 | 0.00 | 0.00 | 30 | 1023.3 |
| 20260904025516 | 22 | 43 | 6.4 | 12.9 | 0.00 | 0.00 | 0.00 | 29 | 1023.3 |
| 20260904024516 | 22 | 41 | 6.4 | 9.7 | 0.00 | 0.00 | 0.00 | 29 | 1023.2 |
| 20260904023516 | 22 | 42 | 4.8 | 9.7 | 0.00 | 0.00 | 0.00 | 29 | 1023.2 |
| 20260904022556 | 23 | 53 | 4.8 | 9.7 | 0.00 | 0.00 | 0.00 | 29 | 1023.3 |
| 20260904021556 | 23 | 68 | 3.2 | 9.7 | 0.00 | 0.00 | 0.00 | 28 | 1023.3 |
| 20260904020516 | 23 | 74 | 4.8 | 8.0 | 0.00 | 0.00 | 0.00 | 27 | 1023.4 |
| 20260904015516 | 24 | 64 | 6.4 | 11.3 | 0.00 | 0.00 | 0.00 | 27 | 1023.5 |
| 20260904014517 | 24 | 70 | 4.8 | 11.3 | 0.00 | 0.00 | 0.00 | 26 | 1023.6 |
| 20260904013616 | 24 | 65 | 4.8 | 9.7 | 0.00 | 0.00 | 0.00 | 26 | 1023.7 |
| 20260904012516 | 25 | 69 | 4.8 | 12.9 | 0.00 | 0.00 | 0.00 | 26 | 1023.8 |
| 20260904011516 | 25 | 58 | 6.4 | 14.5 | 0.00 | 0.00 | 0.00 | 25 | 1023.6 |
| 20260904010516 | 25 | 51 | 8.0 | 14.5 | 0.00 | 0.00 | 0.00 | 25 | 1023.8 |
| 20260904005516 | 25 | 60 | 8.0 | 14.5 | 0.00 | 0.00 | 0.00 | 25 | 1023.9 |
| 20260904004517 | 25 | 49 | 8.0 | 16.1 | 0.00 | 0.00 | 0.00 | 25 | 1023.8 |
| 20260904003516 | 26 | 62 | 4.8 | 11.3 | 0.00 | 0.00 | 0.00 | 25 | 1023.8 |
| 20260904002616 | 26 | 62 | 4.8 | 11.3 | 0.00 | 0.00 | 0.00 | 24 | 1023.8 |
| 20260904001616 | 26 | 59 | 4.8 | 11.3 | 0.00 | 0.00 | 0.00 | 24 | 1023.8 |
| 20260904000516 | 26 | 49 | 4.8 | 9.7 | 0.00 | 0.00 | 0.00 | 24 | 1023.8 |
| 20260903235516 | 26 | 53 | 4.8 | 11.3 | 0.00 | 0.00 | 0.00 | 25 | 1023.8 |
| 20260903234516 | 26 | 67 | 4.8 | 8.0 | 0.00 | 0.00 | 0.00 | 24 | 1023.6 |
| 20260903233556 | 27 | 88 | 3.2 | 8.0 | 0.00 | 0.00 | 0.00 | 24 | 1023.5 |
| 20260903232556 | 27 | 87 | 3.2 | 6.4 | 0.00 | 0.00 | 0.00 | 23 | 1023.5 |
| 20260903231516 | 27 | 75 | 3.2 | 6.4 | 0.00 | 0.00 | 0.00 | 24 | 1023.4 |
| 20260903230516 | 27 | 77 | 3.2 | 4.8 | 0.00 | 0.00 | 0.00 | 25 | 1023.3 |
| 20260903225516 | 27 | 72 | 3.2 | 6.4 | 0.00 | 0.00 | 0.00 | 25 | 1023.5 |
| 20260903224516 | 27 | 61 | 1.6 | 4.8 | 0.00 | 0.00 | 0.00 | 25 | 1023.2 |
| 20260903223516 | 28 | 61 | 3.2 | 4.8 | 0.00 | 0.00 | 0.00 | 24 | 1023.2 |
| 20260903222516 | 28 | 61 | 1.6 | 4.8 | 0.00 | 0.00 | 0.00 | 24 | 1023.2 |
| 20260903221516 | 28 | 48 | 4.8 | 8.0 | 0.00 | 0.00 | 0.00 | 24 | 1022.9 |
| 20260903220516 | 28 | 43 | 4.8 | 6.4 | 0.00 | 0.00 | 0.00 | 24 | 1023.0 |
| 20260903215556 | 28 | 55 | 3.2 | 6.4 | 0.00 | 0.00 | 0.00 | 24 | 1023.0 |
| 20260903214556 | 29 | 63 | 4.8 | 6.4 | 0.00 | 0.00 | 0.00 | 23 | 1022.8 |
| 20260903213516 | 29 | 65 | 3.2 | 6.4 | 0.00 | 0.00 | 0.00 | 23 | 1022.7 |
| 20260903212516 | 29 | 65 | 3.2 | 6.4 | 0.00 | 0.00 | 0.00 | 23 | 1022.8 |
| 20260903211516 | 30 | 65 | 3.2 | 4.8 | 0.00 | 0.00 | 0.00 | 23 | 1022.6 |
| 20260903210516 | 30 | 65 | 3.2 | 6.4 | 0.00 | 0.00 | 0.00 | 22 | 1022.7 |
| 20260903205616 | 30 | 65 | 3.2 | 4.8 | 0.00 | 0.00 | 0.00 | 22 | 1022.7 |
| 20260903204516 | 30 | 260 | 1.6 | 3.2 | 0.00 | 0.00 | 0.00 | 22 | 1022.3 |
| 20260903203516 | 29 | 260 | 1.6 | 3.2 | 0.00 | 0.00 | 0.00 | 24 | 1022.1 |
| 20260903202516 | 29 | 0.0 | 0.0 | 0.00 | 0.00 | 0.00 | 26 | 1022.1 | |
| 20260903201516 | 29 | 0.0 | 0.0 | 0.00 | 0.00 | 0.00 | 25 | 1021.8 | |
| 20260903200516 | 30 | 0.0 | 0.0 | 0.00 | 0.00 | 0.00 | 27 | 1021.9 | |
| 20260903195556 | 30 | 0.0 | 0.0 | 0.00 | 0.00 | 0.00 | 24 | 1021.6 | |
| 20260903194556 | 31 | 0.0 | 0.0 | 0.00 | 0.00 | 0.00 | 24 | 1021.5 | |
| 20260903193516 | 31 | 0.0 | 0.0 | 0.00 | 0.00 | 0.00 | 23 | 1021.4 | |
| 20260903192516 | 31 | 0.0 | 0.0 | 0.00 | 0.00 | 0.00 | 23 | 1021.4 | |
| 20260903191516 | 32 | 0.0 | 0.0 | 0.00 | 0.00 | 0.00 | 22 | 1021.4 | |
| 20260903190556 | 33 | 260 | 0.0 | 1.6 | 0.00 | 0.00 | 0.00 | 21 | 1021.3 |
| 20260903185516 | 33 | 260 | 0.0 | 1.6 | 0.00 | 0.00 | 0.00 | 20 | 1021.4 |
| 20260903184556 | 34 | 260 | 1.6 | 3.2 | 0.00 | 0.00 | 0.00 | 18 | 1021.3 |
| 20260903183516 | 35 | 260 | 1.6 | 3.2 | 0.00 | 0.00 | 0.00 | 17 | 1021.4 |
| 20260903182516 | 36 | 260 | 1.6 | 3.2 | 0.00 | 0.00 | 0.00 | 17 | 1021.5 |
| 20260903181556 | 36 | 260 | 1.6 | 4.8 | 0.00 | 0.00 | 0.00 | 16 | 1021.6 |
| 20260903180516 | 36 | 266 | 1.6 | 6.4 | 0.00 | 0.00 | 0.00 | 15 | 1021.5 |
| 20260903175516 | 37 | 265 | 3.2 | 11.3 | 0.00 | 0.00 | 0.00 | 15 | 1021.7 |
| 20260903174516 | 37 | 270 | 3.2 | 8.0 | 0.00 | 0.00 | 0.00 | 14 | 1021.6 |
| 20260903173516 | 37 | 252 | 3.2 | 6.4 | 0.00 | 0.00 | 0.00 | 14 | 1021.6 |
| 20260903172516 | 37 | 241 | 3.2 | 8.0 | 0.00 | 0.00 | 0.00 | 14 | 1021.6 |